Location: Asheville, NC
(35.6000°N, 82.5500°W)
Time: 15:59:41
(UTC-04:00)

AO-7 - Pass Details

Date: 12 January 2018
Orbit: 1440 x 1458 km, 101.7° (Epoch: 22 June)

Event Time Altitude Azimuth Distance (km) Brightness Sun altitude
Rises 02:57:58 0° 28° (NNE) 4,568 ? -56.6°
Reaches altitude 10° 03:01:18 10° 39° (NE) 3,585 ? -55.9°
Enters shadow 03:03:37 18° 52° (NE) 2,997 ? -55.5°
